OPS 4682 DEB, 18268

Orbit data source: Space-Track

OPS 4682 DEB, 18268 is space debris in LEO originally from a launch on Sat, 03 Apr 1965 UTC launched from the Air Force Western Test Range (AFWTR). Debris objects in space refer to the collection of defunct objects orbiting the Earth. Examples of debris include non-operational satellites, rocket bodies, and fragments generated from explosions, collisions, or faulty payload assembly.

Loading next visibility...
Identifier
18268, 1965-027X
Orbit
LEO
Country
Flag of USUS
Related business
Manufacturer
Unknown
Mission
Spacecraft
Bus & Motor
Unknown
Mass
Unknown
Launch date (UTC)
1965-04-03 (61 years ago)
Launch vehicle
Unknown
Launch site
Air Force Western Test Range (AFWTR)
Object type
Payload
Rocket body
Debris
Shape & HBR
Unknown shape, 0.1 m
Radar Cross Section
Medium (>0.1 m² and <1 m²)

Expand to show TLE details & history
Last TLE update: 1 week ago

TLE from 1 week ago
0 OPS 4682 DEB
1 18268U 65027X   26258.29090486  .00000553  00000-0  18680-2 0  9994
2 18268  90.2512   6.7538 0035804 182.4552 177.6398 12.97775888673629
Epoch: 2026-09-15T06:58Z
TLE epoch observation values (Epoch: 2026-09-15T06:58:54.179Z)
Latitude
-0.00011°
Longitude
-92.23091°
Altitude
1,301.062 km
Speed
7.193 km/s
True Right ascension
00h 27m 00s
True Declination
0° 00' 00"
Sunlit
Object was in full shadow at epoch
Visualization orbit readout
Latitude
Unknown
Longitude
Unknown
Altitude
Unknown
Speed
Unknown
Apparent Right ascension
Unknown
Apparent Declination
Unknown
Sunlit
N/A
Visualization observer readout
Local Sidereal Time
00:27:34
Azimuth
Unknown
Elevation
Unknown
Doppler factor
Unknown
Orbital elements
Apogee altitude
1,295.32 km
Perigee altitude
1,240.568 km
Semi-major axis
7,646.081 km
Eccentricity
0.00358
Inclination
90.2512°
RAAN
6.7538°
Arg. of periapsis
182.4552°
True anomaly
177.65662°
Mean anomaly
177.6398°
Eccentric anomaly
177.64822°
Mean motion
3.24627 °/min
Orbital period
110.9 mins
BSTAR
0.001868
Loading maneuver chart data...
Computing Atmospheric mass density...
Loading historical data...
Loading historical data...
Loading historical data...
Loading historical data...
Loading historical data...
Loading historical data...
Loading historical data...

Documentation

Showing up to 5 results
|